Regional Weather Roundup
Issued by NWS

Home | Current Version | Previous Version | Text Only | Print | Product List | Glossary Off
Versions: 1 2 3 4 5 6 7 8 9 10 11 12 13 14 15 16 17 18 19 20 21 22 23 24 25 26 27 28 29 30 31 32 33 34 35 36 37 38 39 40 41 42 43 44 45 46 47 48 49 50

000
ASUS43 KLOT 290708
RWRIL

ILLINOIS REGIONAL WEATHER ROUNDUP
NATIONAL WEATHER SERVICE CHICAGO/ROMEOVILLE IL
200 AM CDT FRI APR 29 2016

NOTE: "FAIR" INDICATES FEW OR NO CLOUDS BELOW 12,000 FEET WITH NO
SIGNIFICANT WEATHER AND/OR OBSTRUCTIONS TO VISIBILITY.

* THESE STATIONS ARE NOT UNDER NWS QUALITY CONTROL. THEY ALSO MAY NOT
  REPORT WEATHER SUCH AS PRECIPITATION OR FOG.

ILZ001-002-007-009-015-016-024-290800-
NORTHWEST ILLINOIS

CITY           SKY/WX    TMP DP  RH WIND       PRES   REMARKS
MOLINE         CLOUDY    49  45  86 NE7       30.02S FOG
STERLING*      CLOUDY    45  43  93 N5        30.04F
SAVANNA*       DRIZZLE   42  40  93 N5        30.05F
$$

ILZ003-004-008-010-011-017-018-290800-
NORTH CENTRAL ILLINOIS

CITY           SKY/WX    TMP DP  RH WIND       PRES   REMARKS
ROCKFORD       CLOUDY    43  39  86 N5        30.06R
FREEPORT*      CLOUDY    40  39  95 N3        30.07S FOG
ROCHELLE*      CLOUDY    42  40  93 N6        30.04S FOG
DE KALB*       CLOUDY    42  41  96 N5        30.04S FOG
$$

ILZ005-006-012>014-019>023-290800-
NORTHEAST ILLINOIS

CITY           SKY/WX    TMP DP  RH WIND       PRES   REMARKS
CHICAGO-OHARE  CLOUDY    42  41  96 NW5       30.02R FOG
CHICAGO-MIDWAY DRIZZLE   45  41  86 NW7       30.02R FOG
AURORA         CLOUDY    44  41  89 N5        30.03S FOG
LANSING*       DRIZZLE   45  43  91 NW6       30.01S
JOLIET*        CLOUDY    46  44  93 N3        30.03S FOG
WAUKEGAN       CLOUDY    41  40  96 N7        30.02S FOG
DUPAGE AIRPORT LGT RAIN  43  40  89 NW5       30.02R FOG
KANKAKEE*      CLOUDY    48  44  87 N3        30.01F FOG
WHEELING       CLOUDY    42  41  96 N5        30.03R FOG
MORRIS*        CLOUDY    46  42  89 N3        30.01F FOG
ROMEOVILLE*    DRIZZLE   44  42  92 NW5       30.03R
NORTHERLY ISL    N/A     44  42  93 W5          N/A
NORTHERLY ISL    N/A     44  42  93 W5          N/A
$$

LMZ740>746-290800-
SOUTHERN LAKE MICHIGAN

STATION/POSITION SKY/WX   TEMP    WIND        PRES    VSBY  WAVE
                          AIR SEA DIR/SP/G                  HT/PER
                          (F)     (DEG/KT/KT) (MB)    (MI)  (FT/S)
SOUTHERN BUOY              41 40   50/  8/ 10 1016.3F         2/ 4
HARRISON CRIB              44     340/ 10/ 11   N/A
BURNHAM HARBOR             44     290/  5/  6   N/A
CALUMET HARBOR             44     310/  4/  9 1015.6R
BURNS HARBOR               44     280/  4/  5 1016.3S
MICHIGAN CITY              44     220/  6/  7   N/A
ST. JOSEPH                 48 47     CALM       N/A           2/ 4
$$

ILZ025>027-034>036-040-047-049-050-058-095>099-290800-
WEST-CENTRAL ILLINOIS

CITY           SKY/WX    TMP DP  RH WIND       PRES   REMARKS
QUINCY         PTCLDY    52  46  80 NW9       30.03S
GALESBURG*     CLOUDY    52  49  89 W7        30.02R
MACOMB*        CLOUDY    48  47  95 W9        30.05R
JACKSONVILLE*  CLEAR     50  47  90 W6        30.03R
PITTSFIELD*    CLEAR     53  48  84 NW5       30.04F
$$

ILZ028>032-037-038-041>044-048-051>054-059>061-290800-
CENTRAL ILLINOIS

CITY           SKY/WX    TMP DP  RH WIND       PRES   REMARKS
PONTIAC        CLOUDY    52  52  99 NE6       30.00F FOG
BLOOMINGTON    CLOUDY    53  49  86 NW5       30.00F
DECATUR        CLEAR     52  46  80 NW6       30.00S
PEORIA         MOCLDY    52  47  83 CALM      30.01S
LACON*         CLOUDY    48  47  93 N3        30.00F FOG
LINCOLN*       CLOUDY    56  50  81 CALM      30.01R
SPRINGFIELD    CLEAR     54  49  83 NW6       30.02R
TAYLORVILLE    CLEAR     48  48 100 CALM      30.02R
$$

ILZ033-039-045-046-055>057-062-063-290800-
EAST-CENTRAL ILLINOIS

CITY           SKY/WX    TMP DP  RH WIND       PRES   REMARKS
CHAMPAIGN      CLEAR     48  46  93 N5        29.99F
RANTOUL*       CLEAR     52  50  90 N5        29.99F
PARIS*         CLEAR     49  48  97 CALM      30.01S
$$

ILZ079-100>102-290800-
SOUTHWEST ILLINOIS

CITY           SKY/WX    TMP DP  RH WIND       PRES   REMARKS
ALTON          CLOUDY    51  49  92 CALM      30.03S
BELLEVILLE     CLOUDY    53  53  99 CALM      30.02S
CAHOKIA*       CLOUDY    54  50  86 CALM      30.03R
SPARTA*        PTCLDY    56  50  80 CALM      30.04S
$$

ILZ064>066-069>071-074>076-080>082-084>086-088>090-092>094-290800-
SOUTH-CENTRAL ILLINOIS

CITY           SKY/WX    TMP DP  RH WIND       PRES   REMARKS
CARBONDALE     CLOUDY    57  50  77 N3        30.02S
CAIRO*         CLEAR     62  53  72 N6        29.99S
EFFINGHAM*     PTCLDY    51  51 100 CALM      30.03S
MARION         PTCLDY    55  52  88 CALM      30.03R
MT. VERNON     CLEAR     52  45  76 CALM      30.03S
CENTRALIA*     CLEAR     53  52  98 CALM      30.02R
SALEM*         CLEAR     53  50  89 CALM      30.02F
METROPOLIS*    CLEAR     59  55  87 N5        29.99F
$$

ILZ067-068-072-073-078-083-087-091-290800-
SOUTHEAST ILLINOIS

CITY           SKY/WX    TMP DP  RH WIND       PRES   REMARKS
LAWRENCEVILLE  CLEAR     56  49  77 NW3       30.02S
FLORA*         CLEAR     54  51  90 CALM      30.02S
FAIRFIELD*     CLEAR     54  51  90 CALM      30.01F
HARRISBURG*    CLEAR     57  51  81 N3        30.01F
ROBINSON*      CLEAR     50  49  95 CALM      30.02S
CARMI*         CLEAR     57  53  88 N5        30.01F
$$

ABBREVIATIONS USED IN REMARKS
   TC - TEMPERATURE IN CELSIUS
  WCI - WIND CHILL INDEX
   HX - HEAT INDEX
  VSB - VISIBILITY
$$





USA.gov is the U.S. government's official web portal to all federal, state and local government web resources and services.